Time,TemperatureF,DewpointF,PressureIn,WindDirection,WindDirectionDegrees,WindSpeedMPH,WindSpeedGustMPH,Humidity,HourlyPrecipIn,Conditions,Clouds,dailyrainin,SolarRadiationWatts/m^2,SoftwareType,DateUTC
2014-02-24 00:12:00,58.0,58.0,-100.00,North,-999,0.0,0.0,100,0.00,,,0.07,0.000000,,2014-02-24 06:12:00,
2014-02-24 00:23:00,58.0,58.0,-100.00,North,-999,0.0,0.0,100,0.00,,,0.07,0.000000,,2014-02-24 06:23:00,
2014-02-24 00:32:00,58.0,58.0,-100.00,North,-999,0.0,0.0,100,0.00,,,0.07,0.000000,,2014-02-24 06:32:00,
2014-02-24 01:11:00,60.0,60.0,-100.00,North,-999,0.0,0.0,100,0.00,,,0.07,0.000000,,2014-02-24 07:11:00,
2014-02-24 01:22:00,60.0,60.0,-100.00,North,-999,0.0,0.0,100,0.00,,,0.07,0.000000,,2014-02-24 07:22:00,
2014-02-24 01:32:00,60.0,60.0,-100.00,North,-999,0.0,0.0,100,0.00,,,0.07,0.000000,,2014-02-24 07:32:00,
2014-02-24 02:12:00,60.0,60.0,-100.00,North,356,2.0,5.0,100,0.00,,,0.07,0.000000,,2014-02-24 08:12:00,
2014-02-24 02:22:00,60.0,60.0,-100.00,North,356,2.0,5.0,100,0.00,,,0.07,0.000000,,2014-02-24 08:22:00,
2014-02-24 02:32:00,60.0,60.0,-100.00,North,356,2.0,5.0,100,0.00,,,0.07,0.000000,,2014-02-24 08:32:00,
2014-02-24 03:11:00,62.0,62.0,-100.00,NNE,18,2.0,6.0,100,0.00,,,0.07,0.000000,,2014-02-24 09:11:00,
2014-02-24 03:22:00,62.0,62.0,-100.00,NNE,18,2.0,6.0,100,0.00,,,0.07,0.000000,,2014-02-24 09:22:00,
2014-02-24 03:33:00,62.0,62.0,-100.00,NNE,18,2.0,6.0,100,0.00,,,0.07,0.000000,,2014-02-24 09:33:00,
2014-02-24 04:12:00,62.0,62.0,-100.00,NNE,21,3.0,7.0,100,0.00,,,0.07,0.000000,,2014-02-24 10:12:00,
2014-02-24 04:23:00,62.0,62.0,-100.00,NNE,21,3.0,7.0,100,0.00,,,0.07,0.000000,,2014-02-24 10:23:00,
2014-02-24 04:33:00,62.0,62.0,-100.00,NNE,21,3.0,7.0,100,0.00,,,0.07,0.000000,,2014-02-24 10:33:00,
2014-02-24 05:12:00,60.0,60.0,-100.00,NNE,26,3.0,10.0,100,0.00,,,-99.99,0.000000,,2014-02-24 11:12:00,
2014-02-24 05:22:00,60.0,60.0,-100.00,NNE,26,3.0,10.0,100,0.00,,,-99.99,0.000000,,2014-02-24 11:22:00,
2014-02-24 05:33:00,60.0,60.0,-100.00,NNE,26,3.0,10.0,100,0.00,,,-99.99,0.000000,,2014-02-24 11:33:00,
2014-02-24 06:12:00,59.0,59.0,-100.00,NE,34,4.0,10.0,100,0.00,,,0.07,0.000000,,2014-02-24 12:12:00,
2014-02-24 06:22:00,59.0,59.0,-100.00,NE,34,4.0,10.0,100,0.00,,,0.07,0.000000,,2014-02-24 12:22:00,
2014-02-24 06:32:00,59.0,59.0,-100.00,NE,34,4.0,10.0,100,0.00,,,0.07,0.000000,,2014-02-24 12:32:00,
2014-02-24 07:11:00,57.0,56.0,-100.00,NE,45,4.0,10.0,95,0.00,,,0.07,0.000000,,2014-02-24 13:11:00,
2014-02-24 07:22:00,57.0,56.0,-100.00,NE,45,4.0,10.0,95,0.00,,,0.07,0.000000,,2014-02-24 13:22:00,
2014-02-24 07:32:00,57.0,56.0,-100.00,NE,45,4.0,10.0,95,0.00,,,0.07,0.000000,,2014-02-24 13:32:00,
2014-02-24 08:11:00,58.0,55.0,-100.00,NE,50,4.0,10.0,91,0.00,,,0.07,28.000000,,2014-02-24 14:11:00,
2014-02-24 08:22:00,58.0,55.0,-100.00,NE,50,4.0,10.0,91,0.00,,,0.07,28.000000,,2014-02-24 14:22:00,
2014-02-24 08:32:00,58.0,55.0,-100.00,NE,50,4.0,10.0,91,0.00,,,0.07,28.000000,,2014-02-24 14:32:00,
2014-02-24 09:11:00,59.0,55.0,-100.00,NE,48,5.0,13.0,88,0.00,,,0.06,81.000000,,2014-02-24 15:11:00,
2014-02-24 09:22:00,59.0,55.0,-100.00,NE,48,5.0,13.0,88,0.00,,,0.06,81.000000,,2014-02-24 15:22:00,
2014-02-24 09:33:00,59.0,55.0,-100.00,NE,48,5.0,13.0,88,0.00,,,0.06,81.000000,,2014-02-24 15:33:00,
2014-02-24 10:13:00,61.0,54.0,-100.00,ENE,63,5.0,11.0,78,0.00,,,0.00,187.000000,,2014-02-24 16:13:00,
2014-02-24 10:23:00,61.0,54.0,-100.00,ENE,63,5.0,11.0,78,0.00,,,0.00,187.000000,,2014-02-24 16:23:00,
2014-02-24 10:33:00,61.0,54.0,-100.00,ENE,63,5.0,11.0,78,0.00,,,0.00,187.000000,,2014-02-24 16:33:00,
2014-02-24 11:12:00,61.0,54.0,-100.00,East,84,5.0,9.0,78,0.00,,,0.00,215.000000,,2014-02-24 17:12:00,
2014-02-24 11:22:00,61.0,54.0,-100.00,East,84,5.0,9.0,78,0.00,,,0.00,215.000000,,2014-02-24 17:22:00,
2014-02-24 11:33:00,61.0,54.0,-100.00,East,84,5.0,9.0,78,0.00,,,0.00,215.000000,,2014-02-24 17:33:00,
2014-02-24 12:12:00,61.0,54.0,-100.00,NNE,22,3.0,8.0,79,0.00,,,0.00,130.000000,,2014-02-24 18:12:00,
2014-02-24 12:22:00,61.0,54.0,-100.00,NNE,22,3.0,8.0,79,0.00,,,0.00,130.000000,,2014-02-24 18:22:00,
2014-02-24 12:32:00,61.0,54.0,-100.00,NNE,22,3.0,8.0,79,0.00,,,0.00,130.000000,,2014-02-24 18:32:00,
2014-02-24 13:11:00,63.0,55.0,-100.00,ENE,63,3.0,8.0,76,0.00,,,0.00,235.000000,,2014-02-24 19:11:00,
2014-02-24 13:22:00,63.0,55.0,-100.00,ENE,63,3.0,8.0,76,0.00,,,0.00,235.000000,,2014-02-24 19:22:00,
2014-02-24 13:32:00,63.0,55.0,-100.00,ENE,63,3.0,8.0,76,0.00,,,0.00,235.000000,,2014-02-24 19:32:00,
2014-02-24 14:11:00,65.0,56.0,-100.00,East,92,4.0,8.0,73,0.00,,,0.00,262.000000,,2014-02-24 20:11:00,
2014-02-24 14:22:00,65.0,56.0,-100.00,East,92,4.0,8.0,73,0.00,,,0.00,262.000000,,2014-02-24 20:22:00,
2014-02-24 14:32:00,65.0,56.0,-100.00,East,92,4.0,8.0,73,0.00,,,0.00,262.000000,,2014-02-24 20:32:00,
2014-02-24 15:11:00,65.0,57.0,-100.00,ENE,73,4.0,9.0,75,0.00,,,0.00,250.000000,,2014-02-24 21:11:00,
2014-02-24 15:22:00,65.0,57.0,-100.00,ENE,73,4.0,9.0,75,0.00,,,0.00,250.000000,,2014-02-24 21:22:00,
2014-02-24 15:33:00,65.0,57.0,-100.00,ENE,73,4.0,9.0,75,0.00,,,0.00,250.000000,,2014-02-24 21:33:00,
2014-02-24 16:12:00,66.0,59.0,-100.00,ENE,67,3.0,8.0,77,0.00,,,0.00,187.000000,,2014-02-24 22:12:00,
2014-02-24 16:23:00,66.0,59.0,-100.00,ENE,67,3.0,8.0,77,0.00,,,0.00,187.000000,,2014-02-24 22:23:00,
2014-02-24 16:33:00,66.0,59.0,-100.00,ENE,67,3.0,8.0,77,0.00,,,0.00,187.000000,,2014-02-24 22:33:00,
2014-02-24 17:12:00,66.0,59.0,-100.00,NE,38,3.0,7.0,79,0.00,,,0.00,175.000000,,2014-02-24 23:12:00,
2014-02-24 17:22:00,66.0,59.0,-100.00,NE,38,3.0,7.0,79,0.00,,,0.00,175.000000,,2014-02-24 23:22:00,
2014-02-24 17:33:00,66.0,59.0,-100.00,NE,38,3.0,7.0,79,0.00,,,0.00,175.000000,,2014-02-24 23:33:00,
2014-02-24 18:11:00,64.0,60.0,-100.00,ENE,68,2.0,5.0,86,0.00,,,0.00,30.000000,,2014-02-25 00:11:00,
2014-02-24 18:22:00,64.0,60.0,-100.00,ENE,68,2.0,5.0,86,0.00,,,0.00,30.000000,,2014-02-25 00:22:00,
2014-02-24 18:32:00,64.0,60.0,-100.00,ENE,68,2.0,5.0,86,0.00,,,0.00,30.000000,,2014-02-25 00:32:00,
2014-02-24 19:11:00,63.0,60.0,-100.00,North,-999,0.0,4.0,91,0.00,,,0.00,3.000000,,2014-02-25 01:11:00,
2014-02-24 19:22:00,63.0,60.0,-100.00,North,-999,0.0,4.0,91,0.00,,,0.00,3.000000,,2014-02-25 01:22:00,
2014-02-24 19:32:00,63.0,60.0,-100.00,North,-999,0.0,4.0,91,0.00,,,0.00,3.000000,,2014-02-25 01:32:00,
2014-02-24 20:11:00,62.0,60.0,-100.00,ENE,73,2.0,6.0,93,0.00,,,0.00,0.000000,,2014-02-25 02:11:00,
2014-02-24 20:22:00,62.0,60.0,-100.00,ENE,73,2.0,6.0,93,0.00,,,0.00,0.000000,,2014-02-25 02:22:00,
2014-02-24 20:32:00,62.0,60.0,-100.00,ENE,73,2.0,6.0,93,0.00,,,0.00,0.000000,,2014-02-25 02:32:00,
2014-02-24 21:11:00,61.0,60.0,-100.00,ENE,66,2.0,7.0,95,0.00,,,0.00,0.000000,,2014-02-25 03:11:00,
2014-02-24 21:22:00,61.0,60.0,-100.00,ENE,66,2.0,7.0,95,0.00,,,0.00,0.000000,,2014-02-25 03:22:00,
2014-02-24 21:33:00,61.0,60.0,-100.00,ENE,66,2.0,7.0,95,0.00,,,0.00,0.000000,,2014-02-25 03:33:00,
2014-02-24 22:13:00,61.0,60.0,-100.00,East,79,2.0,6.0,98,0.00,,,0.00,0.000000,,2014-02-25 04:13:00,
2014-02-24 22:23:00,61.0,60.0,-100.00,East,79,2.0,6.0,98,0.00,,,0.00,0.000000,,2014-02-25 04:23:00,
2014-02-24 22:33:00,61.0,60.0,-100.00,East,79,2.0,6.0,98,0.00,,,0.00,0.000000,,2014-02-25 04:33:00,
2014-02-24 23:12:00,60.0,60.0,-100.00,East,79,1.0,6.0,100,0.00,,,0.00,0.000000,,2014-02-25 05:12:00,
2014-02-24 23:22:00,60.0,60.0,-100.00,East,79,1.0,6.0,100,0.00,,,0.00,0.000000,,2014-02-25 05:22:00,
2014-02-24 23:34:00,60.0,60.0,-100.00,East,79,1.0,6.0,100,0.00,,,0.00,0.000000,,2014-02-25 05:34:00,